Slocum Cabot on mission AlterECO 3 Piloting

  • Public vehicle
  • Serial Number unit_345
  • Operated by NOC on the AlterECO project

  • Deployed: 2018/05/08 06:30:00 UTC (527 days ago) by scaw
  • Recovered: 2018/08/15 16:00:00 UTC (428 days ago) by cefas
  • Time at Sea: 3 months
  • Profiles Performed: 4740

Near Real-Time Data

 
backscatter
cdom
chlorophyll
conductivity
oxygen
par
pressure
temperature

Communication Log

# Updated Depth Speed Plots
1448936 2018-08-15 15:42:40 UTC (428 days ago)
1448933 2018-08-15 15:36:38 UTC (428 days ago)
1448931 2018-08-15 15:30:28 UTC (428 days ago)
1448929 2018-08-15 15:24:00 UTC (428 days ago)
1448926 2018-08-15 15:15:42 UTC (428 days ago)
1448922 2018-08-15 15:06:58 UTC (428 days ago)
1448918 2018-08-15 15:00:46 UTC (428 days ago)
1448913 2018-08-15 14:54:30 UTC (428 days ago)
1448910 2018-08-15 14:46:29 UTC (428 days ago)
1448908 2018-08-15 14:40:24 UTC (428 days ago)
1448906 2018-08-15 14:34:18 UTC (428 days ago)
1448904 2018-08-15 14:28:15 UTC (428 days ago)
1448901 2018-08-15 14:21:05 UTC (428 days ago)
1448898 2018-08-15 14:14:48 UTC (428 days ago)
1448895 2018-08-15 14:08:46 UTC (428 days ago)
1448892 2018-08-15 14:02:34 UTC (428 days ago)
1448884 2018-08-15 13:56:27 UTC (428 days ago)
1448881 2018-08-15 13:48:47 UTC (428 days ago)
1448877 2018-08-15 13:42:40 UTC (428 days ago)
1448874 2018-08-15 13:36:34 UTC (428 days ago)